Voltar ao catálogo

STARLINK-36265

AtivoComunicaçõesVLEO
NORAD 67208·PAYLOAD·🇺🇸 United States

Lançado Dec 17, 2025 de Vandenberg Space Force Base

Loading…

Próximas Passagens (próximas 24 horas)

TLE

AtualizadoSource: CelesTrak SupGP

Época: Sep 15, 2026, 03:49 UTC

1 67208C 25304S   26258.15951389 -.00021785  00000+0 -18259-2 0  2580
2 67208  70.0010  56.8645 0002772 272.8074  35.9308 14.98336304    15

Acompanhe STARLINK-36265 em tempo real com AllMySat

Download on the App Store